Location: Prairie Siding
(42.3475°N, 82.3249°W)
Time: 10:08:27
(UTC-04:00)

OTV 5 (USA 277) - Visible Passes

Search period start: 20 September 2018 00:00
Search period end: 30 September 2018 00:00
Orbit: 387 x 394 km, 54.5° (Epoch: 08 September)

Date Brightness Start Highest point End Pass type
(mag) Time Alt. Az. Time Alt. Az. Time Alt. Az.
25 Sep ? 06:36:25 10° S 06:38:57 22° SE 06:41:29 10° ENE visible
27 Sep ? 06:18:58 10° SSW 06:22:01 42° SE 06:25:04 10° ENE visible
28 Sep ? 05:25:17 18° SE 05:25:50 19° SE 05:28:12 10° E visible
29 Sep ? 06:03:56 35° SW 06:05:09 88° SE 06:08:23 10° NE visible
